Retour au catalogue

COSMOS 2588

ActifMilitaireVLEO
NORAD 64095·PAYLOAD·🇷🇺 Russia

Lancé May 23, 2025 depuis Plesetsk Cosmodrome

Loading…

Prochains Passages (prochaines 24 heures)

TLE

FraisSource: Space-Track

Époque: Sep 14, 2026, 18:29 UTC

1 64095U 25109A   26257.77067619  .00007659  00000-0  27884-3 0  9995
2 64095  72.9741   5.9275 0009125 226.3924 133.6515 15.28389868 73304

Suivez COSMOS 2588 en temps réel avec AllMySat

Download on the App Store